Change the Weather History Date:

Saturday, May 18, 2013

  Actual Average Record
Temperature  
Mean Temperature 50 °F -  
Max Temperature 53 °F 67 °F 88 °F (1972)
Min Temperature 48 °F 44 °F 29 °F (1954)
Degree Days  
Heating Degree Days 14    
Moisture  
Dew Point 44 °F    
Average Humidity 79    
Maximum Humidity 87    
Minimum Humidity 67    
Precipitation  
Precipitation 0.09 in - - ()
Sea Level Pressure  
Sea Level Pressure 29.91 in    
Wind  
Wind Speed 7 mph (ENE)    
Max Wind Speed 12 mph    
Max Gust Speed -    
Visibility 7 miles    
Events Fog , Rain    
Averages and records for this station are not official NWS values.
T = Trace of Precipitation, MM = Missing Value Source: NWS Daily Summary

Daily Weather History Graph

Daily Weather History Graph

Search for Another Location

Airport or City:

Trip Planner

Search our weather history database for the weather conditions in past years. The results will help you decide how hot, cold, wet, or windy it might be!

Date:

Astronomy

May. 18, 2013 Rise Set
Actual Time 5:35 AM CDT 9:01 PM CDT
Civil Twilight 4:56 AM CDT 9:40 PM CDT
Nautical Twilight 4:05 AM CDT 10:32 PM CDT
Astronomical Twilight 2:56 AM CDT 11:41 PM CDT
Moon 1:30 PM CDT (5/18) 2:05 AM CDT (5/18)
Length of Visible Light 16h 43m
Length of Day
15h 26m
First Quarter, 55% of the Moon is Illuminated
May 18
First Quarter
May 24
Full
May 31
Last Quarter
Jun 8
New
Jun 16
First Quarter

Hourly Weather History & Observations

Time (CDT) Temp. Dew Point Humidity Pressure Visibility Wind Dir Wind Speed Gust Speed Precip Events Conditions
12:14 AM 53.6 °F 42.8 °F 67% 29.96 in 10.0 mi East 8.1 mph - N/A   Clear
12:34 AM 53.6 °F 44.6 °F 72% 29.96 in 10.0 mi East 5.8 mph - N/A   Scattered Clouds
12:53 AM 51.8 °F 44.6 °F 76% 29.95 in 10.0 mi East 6.9 mph - N/A   Clear
1:14 AM 51.8 °F 44.6 °F 76% 29.94 in 10.0 mi East 6.9 mph - N/A   Clear
1:34 AM 51.8 °F 42.8 °F 71% 29.94 in 10.0 mi East 6.9 mph - N/A   Mostly Cloudy
1:54 AM 51.8 °F 42.8 °F 71% 29.93 in 10.0 mi East 8.1 mph - N/A   Overcast
2:14 AM 53.6 °F 42.8 °F 67% 29.94 in 10.0 mi ESE 8.1 mph - N/A   Mostly Cloudy
2:34 AM 53.6 °F 42.8 °F 67% 29.94 in 10.0 mi ESE 8.1 mph - N/A   Mostly Cloudy
2:54 AM 53.6 °F 42.8 °F 67% 29.93 in 10.0 mi East 6.9 mph - N/A   Overcast
3:14 AM 51.8 °F 41.0 °F 67% 29.93 in 10.0 mi East 6.9 mph - N/A   Overcast
3:34 AM 51.8 °F 41.0 °F 67% 29.93 in 10.0 mi ENE 8.1 mph - N/A   Overcast
3:54 AM 51.8 °F 41.0 °F 67% 29.93 in 10.0 mi ENE 8.1 mph - N/A   Overcast
4:14 AM 50.0 °F 41.0 °F 71% 29.93 in 10.0 mi ENE 4.6 mph - N/A   Overcast
4:34 AM 48.2 °F 41.0 °F 76% 29.93 in 10.0 mi ENE 5.8 mph - N/A   Overcast
4:54 AM 48.2 °F 41.0 °F 76% 29.93 in 10.0 mi ENE 6.9 mph - N/A   Overcast
5:14 AM 48.2 °F 41.0 °F 76% 29.92 in 10.0 mi East 6.9 mph - N/A   Overcast
5:34 AM 48.2 °F 42.8 °F 82% 29.93 in 10.0 mi ENE 4.6 mph - N/A   Overcast
5:54 AM 48.2 °F 41.0 °F 76% 29.92 in 10.0 mi East 6.9 mph - N/A   Overcast
6:14 AM 48.2 °F 42.8 °F 82% 29.92 in 10.0 mi East 6.9 mph - N/A   Mostly Cloudy
6:34 AM 50.0 °F 42.8 °F 76% 29.93 in 10.0 mi East 4.6 mph - N/A   Clear
6:54 AM 48.2 °F 42.8 °F 82% 29.92 in 10.0 mi East 4.6 mph - N/A   Mostly Cloudy
7:14 AM 50.0 °F 42.8 °F 76% 29.92 in 10.0 mi East 5.8 mph - N/A   Overcast
7:34 AM 50.0 °F 41.0 °F 71% 29.93 in 10.0 mi ENE 5.8 mph - N/A   Overcast
7:54 AM 50.0 °F 41.0 °F 71% 29.93 in 10.0 mi ENE 6.9 mph - N/A   Overcast
8:14 AM 48.2 °F 41.0 °F 76% 29.92 in 10.0 mi ENE 5.8 mph - N/A   Overcast
8:34 AM 50.0 °F 41.0 °F 71% 29.91 in 10.0 mi ENE 8.1 mph - N/A   Overcast
8:54 AM 50.0 °F 41.0 °F 71% 29.91 in 10.0 mi ENE 8.1 mph - N/A   Overcast
9:14 AM 48.2 °F 41.0 °F 76% 29.91 in 10.0 mi ENE 8.1 mph - N/A   Overcast
9:34 AM 48.2 °F 42.8 °F 82% 29.91 in 10.0 mi ENE 6.9 mph - N/A   Overcast
9:54 AM 50.0 °F 42.8 °F 76% 29.90 in 10.0 mi ENE 6.9 mph - N/A   Overcast
10:14 AM 50.0 °F 42.8 °F 76% 29.90 in 10.0 mi ENE 5.8 mph - N/A   Overcast
10:34 AM 50.0 °F 42.8 °F 76% 29.90 in 10.0 mi ENE 5.8 mph - N/A   Overcast
10:54 AM 51.8 °F 42.8 °F 71% 29.91 in 10.0 mi ENE 5.8 mph - N/A   Overcast
11:14 AM 51.8 °F 44.6 °F 76% 29.90 in 10.0 mi ENE 5.8 mph - N/A   Overcast
11:34 AM 53.6 °F 44.6 °F 72% 29.90 in 10.0 mi ENE 6.9 mph - N/A   Overcast
11:54 AM 53.6 °F 46.4 °F 77% 29.90 in 10.0 mi ENE 8.1 mph - N/A   Overcast
12:14 PM 53.6 °F 46.4 °F 77% 29.89 in 10.0 mi ENE 8.1 mph - N/A   Overcast
12:34 PM 53.6 °F 46.4 °F 77% 29.89 in 10.0 mi NE 6.9 mph - N/A   Overcast
12:54 PM 50.0 °F 46.4 °F 87% 29.89 in 7.0 mi NE 4.6 mph - N/A Rain Rain
1:14 PM 50.0 °F 46.4 °F 87% 29.89 in 10.0 mi NNE 5.8 mph - 0.04 in Rain Light Rain
1:34 PM 50.0 °F 46.4 °F 87% 29.89 in 10.0 mi NE 8.1 mph - 0.04 in   Light Drizzle
2:14 PM 48.2 °F 44.6 °F 87% 29.89 in 7.0 mi ENE 9.2 mph - N/A   Light Drizzle
2:34 PM 48.2 °F 44.6 °F 87% 29.89 in 4.0 mi ENE 9.2 mph - 0.02 in Rain Rain
2:54 PM 50.0 °F 46.4 °F 87% 29.89 in 5.0 mi ENE 11.5 mph - 0.03 in   Drizzle
3:14 PM 50.0 °F 46.4 °F 87% 29.88 in 4.0 mi ENE 10.4 mph - 0.01 in Rain Rain
3:34 PM 50.0 °F 46.4 °F 87% 29.88 in 3.0 mi NE 8.1 mph - 0.01 in Rain Rain
3:54 PM 50.0 °F 46.4 °F 87% 29.89 in 3.0 mi NE 8.1 mph - 0.01 in   Drizzle
4:14 PM 50.0 °F 46.4 °F 87% 29.88 in 4.0 mi NE 9.2 mph - 0.01 in   Drizzle
4:34 PM 50.0 °F 46.4 °F 87% 29.88 in 4.0 mi NE 8.1 mph - 0.01 in   Light Drizzle
4:54 PM 50.0 °F 46.4 °F 87% 29.89 in 4.0 mi NE 8.1 mph - 0.01 in   Overcast
5:13 PM 48.2 °F 44.6 °F 87% 29.89 in 4.0 mi NE 6.9 mph - N/A   Overcast
5:34 PM 48.2 °F 44.6 °F 87% 29.89 in 5.0 mi NE 8.1 mph - N/A   Overcast
5:54 PM 48.2 °F 44.6 °F 87% 29.88 in 3.0 mi NE 8.1 mph - N/A   Drizzle
6:14 PM 48.2 °F 44.6 °F 87% 29.88 in 2.5 mi NE 8.1 mph - N/A   Light Drizzle
6:34 PM 48.2 °F 44.6 °F 87% 29.89 in 0.8 mi NNE 5.8 mph - N/A   Overcast
6:54 PM 48.2 °F 44.6 °F 87% 29.88 in 0.5 mi NE 5.8 mph - N/A Fog Fog
7:14 PM 50.0 °F 46.4 °F 87% 29.88 in 1.8 mi NE 4.6 mph - N/A   Overcast
7:34 PM 50.0 °F 46.4 °F 87% 29.88 in 0.8 mi NNE 4.6 mph - N/A   Overcast
7:54 PM 50.0 °F 46.4 °F 87% 29.88 in 0.2 mi NNE 5.8 mph - N/A Fog Fog
8:14 PM 50.0 °F 46.4 °F 87% 29.88 in 0.5 mi NNE 4.6 mph - N/A Fog Fog
8:34 PM 50.0 °F 46.4 °F 87% 29.88 in 0.2 mi NE 8.1 mph - N/A Fog Fog
8:53 PM 50.0 °F 46.4 °F 87% 29.88 in 0.5 mi NNE 8.1 mph - N/A Fog Fog
9:14 PM 50.0 °F 46.4 °F 87% 29.88 in 0.5 mi NNE 8.1 mph - N/A Fog Fog
9:34 PM 51.8 °F 46.4 °F 82% 29.89 in 0.5 mi NNE 5.8 mph - N/A Fog Fog
9:54 PM 51.8 °F 46.4 °F 82% 29.89 in 0.5 mi NNE 5.8 mph - N/A Fog Fog
10:14 PM 51.8 °F 46.4 °F 82% 29.89 in 0.8 mi NNE 6.9 mph - N/A   Overcast
10:34 PM 51.8 °F 46.4 °F 82% 29.89 in 2.0 mi North 4.6 mph - N/A   Overcast
10:54 PM 51.8 °F 46.4 °F 82% 29.89 in 1.8 mi NNE 5.8 mph - N/A   Overcast
11:14 PM 51.8 °F 46.4 °F 82% 29.89 in 1.2 mi NE 5.8 mph - N/A   Overcast
11:34 PM 51.8 °F 46.4 °F 82% 29.88 in 1.2 mi NNE 8.1 mph - N/A   Overcast